Location: Cottbus
(51.7000°N, 14.3000°E)
Time: 12:33:22
(UTC+01:00)

ISS - Visible Passes

Search period start: 17 December 2025 00:00
Search period end: 27 December 2025 00:00
Orbit: 415 x 420 km, 51.6° (Epoch: 16 December)

Date Brightness Start Highest point End Pass type
(mag) Time Alt. Az. Time Alt. Az. Time Alt. Az.
17 Dec -1.9 05:41:19 20° S 05:42:45 27° SSE 05:45:41 10° E visible
17 Dec -3.6 07:15:51 10° WSW 07:19:14 77° SSE 07:22:37 10° E visible
18 Dec -1.0 04:55:42 18° ESE 04:55:42 18° ESE 04:57:24 10° E visible
18 Dec -3.4 06:28:39 16° WSW 06:31:13 63° SSE 06:34:34 10° E visible
19 Dec -3.1 05:42:51 46° S 05:43:12 49° SSE 05:46:30 10° E visible
19 Dec -3.7 07:16:30 10° W 07:19:54 89° NNW 07:23:18 10° E visible
20 Dec -1.2 04:56:55 21° E 04:56:55 21° E 04:58:22 10° E visible
20 Dec -3.8 06:29:51 23° W 06:31:49 86° S 06:35:13 10° E visible
21 Dec -3.7 05:43:49 75° SSE 05:43:49 75° SSE 05:47:06 10° E visible
21 Dec -3.7 07:17:07 10° W 07:20:31 86° S 07:23:54 10° E visible
22 Dec -1.2 04:57:42 21° E 04:57:42 21° E 04:59:00 10° E visible
22 Dec -3.8 06:30:38 26° W 06:32:24 89° N 06:35:48 10° E visible
23 Dec -3.7 05:44:28 78° E 05:44:28 78° E 05:47:40 10° E visible
23 Dec -3.4 07:17:40 10° W 07:21:01 63° SSW 07:24:22 10° ESE visible
24 Dec -1.1 04:58:16 21° E 04:58:16 21° E 04:59:31 10° E visible
24 Dec -3.7 06:31:11 27° W 06:32:55 76° S 06:36:16 10° ESE visible
25 Dec -3.7 05:44:58 78° ESE 05:44:58 78° ESE 05:48:09 10° E visible
25 Dec -2.7 07:18:12 10° W 07:21:22 37° SSW 07:24:31 10° SE visible
26 Dec -1.1 04:58:43 21° E 04:58:43 21° E 04:59:59 10° E visible
26 Dec -3.3 06:31:38 25° W 06:33:17 50° SSW 06:36:34 10° SE visible
